Location: Wingville
(42.9917°N, 90.4915°W)
Time: 08:33:14
(UTC+00:00)

SL-4 R/B - Visible Passes

Search period start: 26 November 2022 00:00
Search period end: 06 December 2022 00:00
Orbit: 424 x 648 km, 51.6° (Epoch: 25 November)

Date Brightness Start Highest point End Pass type
(mag) Time Alt. Az. Time Alt. Az. Time Alt. Az.
26 Nov 2.6 00:27:49 10° W 00:31:56 46° NNW 00:32:31 43° N visible
27 Nov 2.9 00:18:06 10° W 00:22:09 40° NNW 00:23:09 34° NNE visible
28 Nov 3.1 00:08:23 10° W 00:12:22 36° NNW 00:13:45 27° NNE visible
28 Nov 3.2 23:58:41 10° W 00:02:35 33° NNW 00:04:19 23° NNE visible
29 Nov 5.1 01:39:32 10° NW 01:39:42 11° NW 01:39:42 11° NW visible
29 Nov 3.3 23:48:59 10° WNW 23:52:49 30° NNW 23:54:52 19° NNE visible
30 Nov 4.9 01:29:45 10° NW 01:30:14 12° NW 01:30:14 12° NW visible
30 Nov 3.4 23:39:17 10° WNW 23:43:03 28° NNW 23:45:24 17° NE visible
01 Dec 4.7 01:19:56 10° NW 01:20:46 14° NW 01:20:46 14° NW visible
01 Dec 3.5 23:29:35 10° WNW 23:33:17 27° N 23:35:56 14° NE visible
02 Dec 4.4 01:10:05 10° NW 01:11:18 16° NW 01:11:18 16° NW visible
02 Dec 3.5 23:19:52 10° WNW 23:23:31 26° N 23:26:29 12° NE visible
03 Dec 4.2 01:00:13 10° NW 01:01:51 19° NNW 01:01:51 19° NNW visible
03 Dec 3.5 23:10:07 10° WNW 23:13:44 25° N 23:17:02 11° NE visible
04 Dec 3.8 00:50:20 10° NW 00:52:25 23° NNW 00:52:25 23° NNW visible
04 Dec 3.5 23:00:22 10° WNW 23:03:59 25° N 23:07:24 10° NE visible
05 Dec 3.4 00:40:26 10° NW 00:43:01 28° NNW 00:43:01 28° NNW visible
05 Dec 3.5 22:50:35 10° WNW 22:54:13 25° N 22:57:39 10° NE visible
